{"data":{"norad_id":64717,"intl_designator":"2025-142X","name":"STARLINK-34568","alt_names":[],"object_type":"PAYLOAD","status":"ACTIVE","operator":null,"country":"US","launch_date":"2025-06-28","launch_site_code":"AFWTR","launch_vehicle":null,"mission":null,"orbit_class":"UNKNOWN","rcs_meters":null,"size_class":null,"mass_kg":null,"dimensions":null,"purposes":["comms"],"wikipedia_slug":null,"has_3d_model":false,"image_url":null,"decayed_at":null,"tle_current":{"epoch":"2026-05-25T05:18:24.394752Z","epoch_age_seconds":66433,"freshness":"FRESH","line1":"1 64717U 25142X   26145.22111568  .00003101  00000+0  26747-3 0  9996","line2":"2 64717  70.0001 121.5256 0003835 266.6859  93.3862 14.98338052 50951","mean_motion":14.98338052,"eccentricity":0.0003835,"inclination_deg":70.0001,"raan_deg":121.5256,"arg_perigee_deg":266.6859,"mean_anomaly_deg":93.3862,"bstar":0.00026747,"rev_number":5095,"period_min":96.106482651086,"perigee_km":569.36560148563,"apogee_km":574.69638033465,"semimajor_km":6950.1679909101,"source":"CELESTRAK","updated_at":"2026-05-25T13:38:20.517032Z"}}}